Regional Weather Roundup
Issued by NWS

Home | Current Version | Previous Version | Text Only | Print | Product List | Glossary Off
Versions: 1 2 3 4 5 6 7 8 9 10 11 12 13 14 15 16 17 18 19 20 21 22 23 24 25 26 27 28 29 30 31 32 33 34 35 36 37 38 39 40 41 42 43 44 45 46 47 48 49 50

000
ASUS43 KOAX 272102
RWRNE

WEATHER ROUNDUP FOR NEBRASKA
NATIONAL WEATHER SERVICE OMAHA NE
400 PM CDT WED JUL 27 2016

NOTES: SATELLITE DATA IS BEING USED TO AUGMENT CLOUD COVER ABOVE
       12000 FEET.
       "FAIR" INDICATES FEW OR NO CLOUDS BELOW 12,000 FEET WITH NO
       SIGNIFICANT WEATHER AND/OR OBSTRUCTIONS TO VISIBILITY.

  * THESE STATIONS DO NOT REPORT WEATHER SUCH AS RAIN...SNOW OR FOG.

NEZ001>004-019>022-054>056-272200-
NEBRASKA PANHANDLE

CITY           SKY/WX    TMP DP  RH WIND       PRES   REMARKS
SCOTTSBLUFF    SUNNY     87  49  26 E7        30.10F
ALLIANCE       SUNNY     87  58  37 NE13G24   30.10S
CHADRON        SUNNY     85  56  37 NE17      30.10S
SIDNEY         SUNNY     87  58  37 SE8       30.14F
$$

NEZ057>060-069>072-079>082-272200-
SOUTHWEST NEBRASKA

CITY           SKY/WX    TMP DP  RH WIND       PRES   REMARKS
NORTH PLATTE   SUNNY     87  61  41 N9        30.05F
IMPERIAL       SUNNY     86  59  39 VRB3      30.07S
LEXINGTON      CLOUDY    83  69  61 SE8       30.03S
MCCOOK         SUNNY     86  65  49 E10       30.04F
OGALLALA       SUNNY     87  50  28 SE10      30.08F
$$

NEZ005>010-023>029-035>040-094-272200-
NORTH CENTRAL NEBRASKA

CITY           SKY/WX    TMP DP  RH WIND       PRES   REMARKS
VALENTINE      PTSUNNY   67  56  67 MISG      30.08R
AINSWORTH      MOSUNNY   81  63  54 E6        30.05R
BROKEN BOW     SUNNY     83  65  54 E3        30.04R
O`NEILL        MOSUNNY   82  60  45 CALM      30.03S
ORD            SUNNY     83  63  50 E5        30.00F
THEDFORD       SUNNY     84  63  48 CALM      30.07F
$$

NEZ041-046>049-061>064-073>077-083>087-272200-
SOUTH CENTRAL NEBRASKA

CITY           SKY/WX    TMP DP  RH WIND       PRES   REMARKS
GRAND ISLAND   SUNNY     87  63  44 NE8       30.00F
AURORA         SUNNY     85  63  47 CALM      30.00F
HASTINGS       SUNNY     85  66  53 N3        30.02F
HEBRON         MOSUNNY   87  62  42 N5        30.00F
HOLDREGE       CLOUDY    81  66  58 SE10      30.02F
KEARNEY *      MOSUNNY   88  25  10 E8        30.02F
YORK           SUNNY     84  66  54 N9        30.00F
$$

NEZ011>018-030>034-042>045-272200-
NORTHEAST NEBRASKA

CITY           SKY/WX    TMP DP  RH WIND       PRES   REMARKS
NORFOLK        MOSUNNY   85  64  49 VRB3      29.99F
ALBION         SUNNY     82  64  54 E3        30.01F
BLAIR          MOSUNNY   83  70  64 CALM      29.98S
FREMONT        PTSUNNY   86  65  48 W3        29.98F
TEKAMAH        SUNNY     86  68  54 E8        29.96F
WAYNE          SUNNY     86  67  53 NW3       30.00S
$$

NEZ050>053-065>068-078-088>093-272200-
SOUTHEAST NEBRASKA

CITY           SKY/WX    TMP DP  RH WIND       PRES   REMARKS
LINCOLN        MOSUNNY   88  67  49 N8        29.98F HX  91
OMAHA EPPLEY   MOSUNNY   84  69  60 NE5       29.96F
BEATRICE       CLOUDY    88  65  46 W7        29.97F HX  90
FALLS CITY     PTSUNNY   87  72  60 W7        29.95F HX  93
NEBRASKA CITY  PTSUNNY   85  67  53 NW8       29.96F
PLATTSMOUTH    CLOUDY    85  67  53 W6        29.97F
$$

NEZ044-045-051>053-067-272200-
OMAHA AREA

CITY           SKY/WX    TMP DP  RH WIND       PRES   REMARKS
OMAHA EPPLEY   MOSUNNY   84  69  60 NE5       29.96F
BLAIR          MOSUNNY   83  70  64 CALM      29.98S
FREMONT        PTSUNNY   86  65  48 W3        29.98F
MILLARD        PTSUNNY   84  71  64 CALM      29.96S
OFFUTT AFB     MOSUNNY   85  70  60 E8        29.96F HX  90
PLATTSMOUTH    CLOUDY    85  67  53 W6        29.97F
WAHOO          FAIR      85  69  57 N3        29.98S
$$




USA.gov is the U.S. government's official web portal to all federal, state and local government web resources and services.